Time,TemperatureF,DewpointF,PressureIn,WindDirection,WindDirectionDegrees,WindSpeedMPH,WindSpeedGustMPH,Humidity,HourlyPrecipIn,Conditions,Clouds,dailyrainin,SoftwareType,DateUTC
2013-07-04 00:34:00,92.0,55.0,28.41,North,0,0.0,-999.0,29,0.00,,,-99.99,,2013-07-04 07:34:00,
2013-07-04 00:43:00,92.0,55.0,28.41,North,0,0.0,-999.0,29,0.00,,,-99.99,,2013-07-04 07:43:00,
2013-07-04 00:52:00,92.0,55.0,28.41,North,0,0.0,-999.0,29,0.00,,,-99.99,,2013-07-04 07:52:00,
2013-07-04 02:52:00,89.0,57.0,28.38,North,0,0.0,-999.0,34,0.00,,,-99.99,,2013-07-04 09:52:00,
2013-07-04 06:33:00,85.0,56.0,28.07,North,0,0.0,-999.0,37,0.00,,,-99.99,,2013-07-04 13:33:00,
2013-07-04 06:43:00,85.0,56.0,28.07,North,0,0.0,-999.0,37,0.00,,,-99.99,,2013-07-04 13:43:00,
2013-07-04 06:53:00,85.0,56.0,28.07,North,0,0.0,-999.0,37,0.00,,,-99.99,,2013-07-04 13:53:00,
2013-07-04 09:33:00,92.0,70.0,28.63,East,90,6.0,-999.0,49,0.00,,,-99.99,,2013-07-04 16:33:00,
2013-07-04 09:42:00,92.0,70.0,28.63,East,90,6.0,-999.0,49,0.00,,,-99.99,,2013-07-04 16:42:00,
2013-07-04 09:52:00,92.0,70.0,28.63,East,90,6.0,-999.0,49,0.00,,,-99.99,,2013-07-04 16:52:00,
2013-07-04 10:33:00,95.0,69.0,29.20,SE,130,1.0,-999.0,43,0.00,,,-99.99,,2013-07-04 17:33:00,
2013-07-04 10:43:00,95.0,69.0,29.20,SE,130,1.0,-999.0,43,0.00,,,-99.99,,2013-07-04 17:43:00,
2013-07-04 10:53:00,95.0,69.0,29.20,SE,130,1.0,-999.0,43,0.00,,,-99.99,,2013-07-04 17:53:00,
2013-07-04 11:33:00,97.0,66.0,28.98,ENE,70,2.0,-999.0,37,0.00,,,-99.99,,2013-07-04 18:33:00,
2013-07-04 11:43:00,97.0,66.0,28.98,ENE,70,2.0,-999.0,37,0.00,,,-99.99,,2013-07-04 18:43:00,
2013-07-04 11:52:00,97.0,66.0,28.98,ENE,70,2.0,-999.0,37,0.00,,,-99.99,,2013-07-04 18:52:00,
2013-07-04 12:33:00,102.0,62.0,28.75,North,0,0.0,-999.0,27,0.00,,,-99.99,,2013-07-04 19:33:00,
2013-07-04 12:43:00,102.0,62.0,28.75,North,0,0.0,-999.0,27,0.00,,,-99.99,,2013-07-04 19:43:00,
2013-07-04 12:53:00,102.0,62.0,28.75,North,0,0.0,-999.0,27,0.00,,,-99.99,,2013-07-04 19:53:00,
2013-07-04 13:33:00,104.0,62.0,29.14,North,0,0.0,-999.0,26,0.00,,,-99.99,,2013-07-04 20:33:00,
2013-07-04 13:42:00,104.0,62.0,29.14,North,0,0.0,-999.0,26,0.00,,,-99.99,,2013-07-04 20:42:00,
2013-07-04 13:53:00,104.0,62.0,29.14,North,0,0.0,-999.0,26,0.00,,,-99.99,,2013-07-04 20:53:00,
2013-07-04 14:32:00,108.0,57.0,29.52,North,0,0.0,-999.0,19,0.00,,,-99.99,,2013-07-04 21:32:00,
2013-07-04 14:42:00,108.0,57.0,29.52,North,0,0.0,-999.0,19,0.00,,,-99.99,,2013-07-04 21:42:00,
2013-07-04 14:52:00,108.0,57.0,29.52,North,0,0.0,-999.0,19,0.00,,,-99.99,,2013-07-04 21:52:00,
2013-07-04 15:33:00,108.0,61.0,29.50,North,0,0.0,-999.0,22,0.00,,,-99.99,,2013-07-04 22:33:00,
2013-07-04 15:43:00,108.0,61.0,29.50,North,0,0.0,-999.0,22,0.00,,,-99.99,,2013-07-04 22:43:00,
2013-07-04 15:52:00,108.0,61.0,29.50,North,0,0.0,-999.0,22,0.00,,,-99.99,,2013-07-04 22:52:00,
2013-07-04 16:33:00,110.0,60.0,29.46,North,0,0.0,-999.0,20,0.00,,,-99.99,,2013-07-04 23:33:00,
2013-07-04 16:42:00,110.0,60.0,29.46,North,0,0.0,-999.0,20,0.00,,,-99.99,,2013-07-04 23:42:00,
2013-07-04 16:52:00,110.0,60.0,29.46,North,0,0.0,-999.0,20,0.00,,,-99.99,,2013-07-04 23:52:00,
2013-07-04 17:32:00,109.0,62.0,29.44,East,100,4.0,-999.0,22,0.00,,,-99.99,,2013-07-05 00:32:00,
2013-07-04 17:43:00,109.0,62.0,29.44,East,100,4.0,-999.0,22,0.00,,,-99.99,,2013-07-05 00:43:00,
2013-07-04 17:52:00,109.0,62.0,29.44,East,100,4.0,-999.0,22,0.00,,,-99.99,,2013-07-05 00:52:00,
2013-07-04 18:32:00,108.0,60.0,29.41,ESE,110,3.0,-999.0,21,0.00,,,-99.99,,2013-07-05 01:32:00,
2013-07-04 18:42:00,108.0,60.0,29.41,ESE,110,3.0,-999.0,21,0.00,,,-99.99,,2013-07-05 01:42:00,
2013-07-04 18:52:00,108.0,60.0,29.41,ESE,110,3.0,-999.0,21,0.00,,,-99.99,,2013-07-05 01:52:00,
2013-07-04 19:32:00,106.0,59.0,29.42,SE,130,4.0,-999.0,22,0.00,,,-99.99,,2013-07-05 02:32:00,
2013-07-04 19:42:00,106.0,59.0,29.42,SE,130,4.0,-999.0,22,0.00,,,-99.99,,2013-07-05 02:42:00,
2013-07-04 19:52:00,106.0,59.0,29.42,SE,130,4.0,-999.0,22,0.00,,,-99.99,,2013-07-05 02:52:00,
2013-07-04 20:32:00,102.0,59.0,29.43,East,100,1.0,-999.0,25,0.00,,,-99.99,,2013-07-05 03:32:00,
2013-07-04 20:42:00,102.0,59.0,29.43,East,100,1.0,-999.0,25,0.00,,,-99.99,,2013-07-05 03:42:00,
2013-07-04 20:51:00,102.0,59.0,29.43,East,100,1.0,-999.0,25,0.00,,,-99.99,,2013-07-05 03:51:00,
2013-07-04 21:33:00,100.0,60.0,29.45,North,0,0.0,-999.0,27,0.00,,,-99.99,,2013-07-05 04:33:00,
2013-07-04 21:43:00,100.0,60.0,29.45,North,0,0.0,-999.0,27,0.00,,,-99.99,,2013-07-05 04:43:00,
2013-07-04 21:53:00,100.0,60.0,29.45,North,0,0.0,-999.0,27,0.00,,,-99.99,,2013-07-05 04:53:00,
2013-07-04 22:33:00,98.0,51.0,29.15,North,0,0.0,-999.0,21,0.00,,,-99.99,,2013-07-05 05:33:00,
2013-07-04 22:43:00,98.0,51.0,29.15,North,0,0.0,-999.0,21,0.00,,,-99.99,,2013-07-05 05:43:00,
2013-07-04 22:52:00,98.0,51.0,29.15,North,0,0.0,-999.0,21,0.00,,,-99.99,,2013-07-05 05:52:00,
2013-07-04 23:43:00,95.0,62.0,29.34,North,0,0.0,-999.0,34,0.00,,,-99.99,,2013-07-05 06:43:00,
2013-07-04 23:52:00,95.0,62.0,29.34,North,0,0.0,-999.0,34,0.00,,,-99.99,,2013-07-05 06:52:00,